Temperature
19 19 19 19 19 19 19 19 19 19 19 19 19 19 18 18 18 18 18 18 18 18 18 18 18 18 18 18 19 19 19 19 19 19 19 19 19 18 18 18 18 18 18
20 20 19 19 19 19 19 19 19 19 19 19 18 18 18 18 18 18 18 18 18 18 18 18 18 18 18 18 18 19 19 19 19 19 19 19 18 18 18 18 18 18 18
20 20 19 19 19 19 19 19 19 19 19 18 18 18 18 18 18 18 18 18 18 18 18 18 18 18 18 18 18 19 19 19 19 18 18 18 18 18 18 18 18 18 18
20 19 19 19 19 19 19 19 19 19 19 18 18 18 18 18 18 18 18 18 18 18 18 18 18 18 18 18 18 19 19 19 18 18 18 18 18 18 18 18 18 18 18
20 20 20 20 19 19 19 19 19 19 19 18 18 18 18 18 18 18 18 18 18 18 18 18 18 18 18 18 19 19 19 18 18 18 18 18 18 18 18 18 18 18 18
20 20 20 20 19 19 19 19 19 19 18 18 18 18 18 18 18 18 18 18 18 18 18 18 18 18 18 19 19 19 19 19 18 18 18 18 18 18 18 18 18 18 18
20 20 20 20 19 19 19 19 19 19 19 18 18 18 18 18 18 18 18 18 18 18 18 18 18 18 19 19 19 19 19 19 19 18 18 18 19 19 18 18 18 18 18
20 20 20 20 19 19 19 19 19 19 19 19 18 19 19 18 18 18 18 18 18 18 18 18 18 19 19 19 19 19 19 19 18 18 18 19 19 19 18 18 18 18 18
20 20 20 20 20 19 19 19 19 19 19 19 19 19 19 19 18 18 18 18 18 19 19 19 19 19 19 19 19 19 19 19 19 19 19 19 19 19 18 18 18 18 18
21 20 20 19 19 19 19 19 19 19 19 19 19 19 19 19 19 18 18 19 19 19 19 19 19 19 19 19 19 19 19 19 19 19 18 19 19 19 18 18 18 18 18
21 20 20 20 19 19 19 19 19 19 19 19 19 19 19 19 18 18 19 19 19 19 19 19 19 19 19 19 19 19 19 19 19 19 19 19 19 19 19 18 18 18 18
21 21 20 20 20 20 19 19 19 19 19 19 19 19 19 19 18 18 19 19 19 19 19 19 19 19 19 19 19 19 19 19 19 19 19 19 19 19 19 18 18 18 18
21 21 21 21 21 20 20 20 19 19 19 19 19 19 19 19 18 19 19 19 19 18 19 19 19 19 19 19 19 19 19 19 19 19 19 19 19 19 19 19 18 18 18
21 21 21 21 20 20 20 20 20 19 19 19 19 19 19 19 19 19 19 19 19 19 19 19 19 19 19 19 19 19 19 19 19 19 19 19 19 19 19 19 18 18 18
22 21 21 20 20 20 20 20 20 20 19 19 19 19 19 19 19 19 19 19 19 19 19 19 19 19 19 19 19 19 19 19 19 19 19 19 19 19 19 19 19 18 18
22 21 21 20 20 20 20 20 20 20 20 19 19 19 19 19 19 19 19 19 19 19 19 19 19 19 19 19 19 19 19 19 19 19 19 19 19 19 19 19 19 19 18
22 21 21 20 20 20 20 20 20 20 20 20 19 19 19 19 19 19 19 19 19 19 19 19 19 19 19 19 19 19 19 19 19 19 19 19 19 19 19 19 19 19 18
22 21 21 21 20 20 20 20 20 20 20 20 20 19 19 19 19 19 19 19 19 19 19 19 19 19 19 19 19 19 19 19 19 19 19 19 19 19 19 19 19 19 18
22 21 21 21 20 20 20 20 20 20 20 20 20 19 19 19 19 19 19 19 19 19 19 19 19 19 19 19 19 19 19 19 19 19 19 19 19 19 19 19 19 19 18
22 21 21 21 20 20 20 20 20 20 20 20 20 19 19 19 19 19 19 19 19 19 19 19 19 19 19 19 19 19 19 20 20 20 19 19 19 19 19 19 19 19 18
22 21 21 21 20 20 20 20 20 20 20 20 20 20 19 19 19 19 19 19 19 19 19 19 19 19 19 19 19 19 19 20 20 20 20 20 19 19 19 19 19 18 18
22 21 21 21 21 20 20 20 20 20 20 20 20 20 19 19 19 19 19 19 19 19 19 19 19 19 19 19 19 19 19 19 20 20 20 20 20 19 19 19 19 18 18
22 21 21 21 21 20 20 20 20 20 20 20 20 20 19 19 19 19 19 19 19 19 19 19 19 19 19 19 19 19 19 19 19 20 20 20 20 19 19 19 19 19 18
23 22 21 21 21 20 20 20 20 20 20 20 20 20 19 19 19 19 19 19 19 19 19 19 19 19 19 19 19 19 19 19 19 19 20 20 20 19 19 19 19 19 18
23 22 21 21 21 21 20 20 20 20 20 20 20 20 19 19 19 19 19 19 19 19 19 19 19 19 19 18 19 19 19 19 19 19 19 19 19 19 19 19 19 18 18
23 22 22 21 21 21 20 20 20 20 20 20 20 20 19 19 19 19 19 19 19 19 18 18 18 18 18 18 19 19 19 19 19 19 19 19 19 19 19 19 19 18 18
Wind_Speed
11 12 14 14 13 13 13 13 13 14 14 15 15 14 14 14 14 14 14 14 13 12 11 10 9 8 8 8 8 9 9 9 9 10 10 11 10 9 8 8 9 11 13
13 14 14 14 14 13 13 13 12 13 14 15 15 14 14 13 13 13 12 12 11 10 10 9 8 8 8 8 7 7 7 7 7 8 9 9 9 9 8 8 9 10 11
14 14 14 14 14 13 13 13 13 14 15 15 14 14 13 12 12 12 11 11 10 9 9 8 8 7 7 7 6 6 5 5 5 6 7 8 8 9 9 9 11 11 10
15 14 14 14 13 13 13 13 13 14 14 14 14 13 12 12 11 11 11 10 9 9 8 7 7 7 6 5 5 4 3 3 3 4 5 6 8 10 9 9 10 10 9
15 15 15 14 13 13 13 13 13 13 13 13 13 12 12 11 11 10 10 9 8 8 7 6 6 5 5 4 4 3 2 3 4 5 2 7 10 11 10 10 9 9 9
15 16 15 14 13 13 13 13 13 13 13 13 12 12 11 10 10 9 9 8 7 6 6 6 5 4 4 3 3 3 3 5 6 5 4 9 11 11 11 10 9 8 8
15 16 15 14 13 13 13 13 12 12 12 12 11 11 9 9 9 8 7 7 6 6 6 5 5 4 3 3 3 4 5 6 7 4 4 9 12 13 11 10 9 9 8
14 15 15 14 13 13 13 13 12 11 11 11 10 9 8 8 7 7 7 6 6 5 5 5 5 4 4 4 4 5 6 8 5 2 4 10 13 13 11 10 9 9 8
13 13 13 14 13 13 12 12 11 11 10 10 9 8 8 8 7 7 7 6 6 5 5 5 5 5 5 6 6 7 8 8 7 2 5 10 13 13 11 10 9 8 8
11 11 11 13 13 12 12 12 11 11 10 9 8 8 7 7 7 7 7 7 7 6 6 6 6 6 7 8 8 9 9 8 8 3 5 10 13 12 11 10 9 8 8
9 8 9 10 11 12 12 13 11 11 10 9 8 8 8 7 8 8 7 9 8 8 8 8 8 8 8 9 11 11 9 8 7 4 7 13 13 12 11 10 9 9 9
9 9 7 8 8 9 9 11 9 9 9 7 7 7 7 6 6 7 9 10 9 9 9 10 10 9 10 9 11 12 9 9 5 6 9 16 14 12 11 10 9 9 9
9 8 8 7 6 6 5 6 5 6 8 6 6 5 5 4 5 6 7 7 8 9 8 8 10 9 9 7 6 7 7 5 3 5 11 15 13 12 11 10 10 10 9
9 8 8 7 6 4 4 3 4 4 5 4 5 4 3 1 1 3 3 5 6 6 5 5 5 6 5 5 5 4 4 3 3 6 11 14 14 13 11 11 10 10 10
9 9 8 7 6 4 2 1 3 3 3 4 5 3 3 2 1 1 1 2 2 3 3 3 2 2 2 4 4 3 3 3 2 4 8 14 15 14 13 11 11 11 10
8 8 8 8 7 5 4 2 1 2 3 3 3 4 2 2 1 0 1 1 1 2 2 2 3 3 3 3 3 3 4 3 3 5 7 11 15 15 14 13 12 12 11
7 7 7 8 8 6 5 4 3 3 4 3 3 4 2 2 1 0 1 2 1 2 3 3 3 2 3 3 3 4 3 3 3 4 6 8 10 14 15 14 14 13 12
8 7 6 7 9 7 4 3 2 2 2 2 3 4 3 3 2 1 1 2 1 2 2 2 2 1 1 1 2 3 3 2 3 4 5 7 8 9 13 15 15 14 13
8 7 6 4 7 7 6 4 3 2 1 1 2 3 2 2 2 2 1 1 2 1 1 2 2 1 1 2 2 3 3 3 3 4 4 5 6 8 9 13 15 15 14
9 8 7 6 6 6 5 4 3 2 3 3 2 3 4 3 2 2 2 2 1 1 1 1 1 1 1 2 3 3 3 3 3 3 4 4 5 6 8 9 10 12 14
10 9 8 8 7 5 4 4 4 3 3 3 3 4 4 3 2 2 2 1 1 0 0 2 1 2 2 2 1 2 4 3 4 3 3 2 3 5 6 8 8 7 9
11 10 9 7 8 7 5 4 3 3 3 3 1 3 3 3 2 2 1 2 1 1 1 1 2 2 2 1 1 1 2 2 3 3 3 3 3 2 4 6 8 8 7
11 11 10 8 7 7 6 4 3 2 2 2 2 2 3 3 2 1 1 1 1 1 1 2 2 2 2 2 1 1 1 1 2 2 1 2 2 2 2 3 6 7 8
12 11 9 9 8 7 6 5 5 4 3 3 2 2 2 2 2 1 1 1 2 1 0 3 1 2 2 2 2 1 2 1 1 1 2 1 1 2 3 2 2 5 7
12 12 10 8 7 7 5 5 5 4 3 2 2 2 3 2 2 1 1 0 1 1 1 2 1 2 2 2 2 2 2 2 3 2 2 2 2 1 2 2 1 2 4
11 11 11 10 8 7 6 6 5 4 3 2 2 2 2 2 2 2 2 1 1 1 1 1 1 1 2 2 3 2 2 1 1 1 2 2 2 2 1 1 2 2 3
Wind_Direction
102 103 98 96 99 99 105 104 106 111 111 109 108 108 108 105 105 105 106 104 104 104 105 103 106 102 98 95 96 95 95 99 102 100 100 101 100 98 101 109 110 106 108
111 107 102 98 98 99 104 105 106 110 116 114 113 113 112 109 107 106 105 106 107 107 105 104 105 104 102 100 102 104 108 114 119 120 117 111 109 105 100 102 98 109 112
111 110 107 101 100 100 102 103 105 110 116 118 119 117 115 114 112 110 107 108 110 110 109 108 109 107 105 105 107 112 120 131 146 152 148 130 124 118 111 106 108 118 118
113 110 108 106 102 101 102 103 105 110 114 117 120 119 120 117 115 115 114 114 114 115 116 115 115 115 111 111 116 124 139 167 199 211 188 143 129 125 122 117 119 124 127
110 109 108 110 105 104 104 103 107 110 113 117 119 121 123 122 121 123 124 123 123 123 124 126 125 126 125 130 138 153 200 234 252 258 163 122 115 131 133 130 129 132 133
117 112 112 112 110 108 106 106 109 112 114 119 121 121 123 126 127 129 130 130 130 129 130 134 133 136 140 149 169 201 239 259 270 249 164 130 126 138 139 139 140 142 141
117 116 119 118 114 111 109 109 112 115 117 121 123 124 127 131 133 134 135 139 140 139 139 143 148 158 168 180 202 229 250 267 261 241 154 125 132 142 144 146 146 148 149
118 120 124 124 121 117 115 114 115 118 120 123 127 130 135 139 143 145 148 153 156 157 162 166 170 179 193 205 224 242 257 273 263 216 140 126 138 146 148 151 153 156 156
123 125 132 134 132 128 124 123 123 125 127 130 131 138 148 153 158 162 165 169 171 174 178 183 187 195 208 220 232 246 258 269 278 217 131 128 145 151 153 156 160 164 165
123 128 138 140 141 143 139 136 136 137 140 144 146 150 155 164 176 182 182 183 185 189 192 199 206 212 218 227 236 246 255 266 259 210 136 139 154 156 157 160 166 171 174
124 132 140 144 149 147 144 145 151 151 155 159 161 169 174 183 181 189 185 183 193 200 204 210 217 222 225 230 237 243 251 246 230 163 140 153 161 162 164 167 172 176 179
139 138 140 145 150 142 136 144 158 157 159 172 162 173 192 196 185 171 175 189 199 209 217 220 225 229 233 229 230 233 240 238 211 153 150 156 162 167 171 175 179 182 185
145 143 142 142 129 120 124 140 151 149 154 164 158 177 182 181 163 160 173 192 201 210 222 215 220 226 228 225 218 213 227 237 184 152 157 161 165 172 176 182 187 190 192
144 147 146 137 117 112 117 137 146 145 148 152 158 180 163 164 155 166 174 183 198 202 207 210 216 228 236 237 235 223 226 226 171 144 160 167 169 177 182 186 190 194 197
151 149 139 133 121 114 112 172 142 143 138 144 150 168 180 158 138 161 130 208 213 183 194 213 219 237 261 251 251 230 225 243 190 160 158 172 177 182 186 188 193 197 199
149 145 140 143 139 146 166 180 148 141 146 150 145 158 187 122 112 29 221 243 205 202 198 205 208 219 236 254 270 270 235 224 200 165 163 177 185 187 189 193 197 201 203
149 144 144 159 153 164 181 189 176 178 168 163 148 153 181 139 144 198 247 248 220 206 199 210 217 216 232 239 253 265 248 225 200 196 176 180 187 195 197 199 202 205 207
153 150 168 170 154 163 184 203 200 185 151 146 149 153 172 176 208 244 247 259 234 225 201 199 202 218 252 248 247 259 257 220 208 202 195 190 188 195 199 204 206 207 208
155 155 167 160 152 163 179 195 215 168 166 183 179 153 169 211 220 254 251 266 255 247 237 240 133 171 256 269 259 239 241 225 217 217 195 184 185 179 184 197 205 208 210
159 158 165 166 165 169 178 191 218 197 189 200 191 164 167 197 208 253 227 256 282 317 341 350 22 246 244 258 278 291 279 252 214 208 211 185 178 185 181 178 189 206 210
164 165 170 173 166 178 189 189 199 201 206 197 191 170 168 193 201 232 292 314 302 278 279 281 263 253 240 227 245 286 281 262 223 198 204 193 176 179 176 169 180 186 194
166 167 170 176 172 185 186 189 198 203 212 201 192 149 171 182 208 216 224 274 271 231 227 278 274 263 262 233 212 268 295 302 278 227 191 196 198 187 172 175 178 180 183
170 173 178 177 172 184 184 188 204 190 220 219 178 169 170 170 204 248 189 277 295 242 203 255 264 263 256 264 218 219 243 273 292 275 230 190 185 198 212 179 174 175 182
176 174 166 166 171 180 189 193 199 200 211 211 190 175 163 163 197 203 197 254 297 309 288 274 199 274 270 271 260 226 226 219 248 296 300 272 199 217 223 218 204 170 179
177 175 169 166 174 178 185 194 202 210 210 198 176 167 175 171 194 184 180 233 298 324 332 343 359 323 301 295 294 279 270 240 228 221 269 288 282 241 211 184 191 160 177
178 176 172 165 173 179 187 196 195 209 210 194 188 176 187 183 177 170 172 189 244 299 322 336 310 295 294 311 314 303 300 301 292 260 262 269 274 276 247 181 177 170 166
Height
1513 1513 1513 1513 1514 1515 1516 1517 1517 1518 1520 1522 1524 1525 1527 1529 1531 1533 1534 1536 1537 1539 1540 1541 1543 1544 1545 1545 1546 1547 1548 1549 1549 1550 1551 1552 1552 1553 1553 1554 1554 1555 1556
1514 1514 1515 1516 1517 1517 1518 1519 1519 1520 1521 1524 1526 1528 1529 1531 1533 1535 1536 1538 1539 1540 1542 1543 1544 1545 1546 1547 1547 1548 1549 1550 1551 1551 1552 1553 1553 1554 1554 1555 1555 1556 1557
1515 1516 1517 1518 1519 1519 1520 1521 1521 1521 1523 1525 1528 1530 1531 1533 1535 1536 1538 1539 1541 1542 1543 1544 1545 1546 1547 1548 1548 1549 1550 1551 1552 1552 1553 1553 1554 1555 1555 1556 1556 1557 1557
1517 1517 1519 1520 1521 1521 1522 1523 1523 1524 1526 1528 1530 1532 1533 1535 1537 1538 1539 1541 1542 1543 1544 1545 1546 1547 1548 1549 1549 1550 1551 1552 1553 1553 1554 1555 1555 1555 1556 1556 1557 1558 1558
1518 1519 1520 1521 1523 1523 1524 1525 1526 1527 1528 1530 1532 1534 1535 1537 1538 1539 1541 1542 1543 1544 1545 1546 1547 1548 1549 1550 1550 1551 1552 1553 1554 1554 1555 1555 1556 1556 1557 1557 1558 1558 1559
1520 1521 1522 1523 1525 1525 1526 1527 1528 1530 1531 1532 1534 1535 1537 1538 1539 1541 1542 1543 1544 1545 1546 1547 1548 1549 1550 1550 1551 1552 1553 1554 1554 1555 1556 1556 1556 1557 1557 1557 1558 1559 1560
1523 1523 1524 1525 1526 1527 1528 1530 1530 1532 1533 1534 1535 1537 1538 1540 1541 1542 1543 1544 1545 1546 1547 1548 1549 1549 1550 1551 1552 1552 1553 1554 1555 1556 1556 1556 1557 1557 1557 1558 1558 1559 1560
1524 1525 1526 1527 1528 1529 1530 1531 1532 1533 1535 1536 1537 1538 1540 1541 1542 1543 1544 1545 1546 1547 1548 1548 1549 1550 1550 1551 1552 1553 1554 1554 1555 1556 1556 1556 1557 1557 1558 1558 1559 1559 1560
1526 1526 1527 1529 1530 1531 1532 1533 1534 1535 1536 1537 1539 1540 1541 1542 1543 1544 1545 1546 1547 1547 1548 1549 1549 1550 1551 1551 1552 1553 1554 1554 1555 1555 1556 1556 1557 1557 1557 1558 1558 1559 1560
1528 1529 1530 1531 1532 1532 1534 1535 1536 1537 1538 1539 1540 1541 1542 1543 1544 1544 1545 1546 1547 1548 1548 1549 1550 1550 1551 1552 1552 1553 1554 1554 1555 1555 1555 1555 1556 1557 1557 1558 1558 1559 1560
1529 1530 1531 1533 1534 1535 1536 1537 1538 1539 1540 1541 1542 1543 1543 1544 1544 1545 1546 1547 1547 1548 1548 1549 1549 1550 1551 1552 1552 1553 1553 1553 1554 1554 1554 1555 1556 1556 1557 1557 1558 1559 1559
1530 1531 1533 1534 1535 1537 1538 1538 1539 1540 1541 1542 1543 1543 1544 1545 1545 1546 1546 1547 1548 1548 1548 1549 1549 1550 1551 1551 1552 1553 1553 1553 1553 1553 1554 1555 1555 1556 1556 1557 1557 1558 1559
1530 1531 1533 1534 1536 1537 1538 1539 1540 1541 1542 1543 1543 1544 1545 1546 1546 1547 1547 1547 1547 1548 1548 1549 1549 1550 1550 1551 1552 1553 1553 1553 1552 1552 1553 1554 1554 1555 1555 1556 1556 1557 1558
1529 1531 1533 1534 1535 1537 1538 1540 1541 1542 1543 1543 1544 1545 1545 1546 1547 1547 1547 1547 1547 1547 1548 1549 1549 1550 1551 1551 1552 1552 1553 1553 1552 1553 1553 1553 1553 1554 1554 1555 1555 1556 1557
1529 1531 1532 1533 1534 1536 1538 1539 1541 1542 1543 1544 1544 1545 1546 1546 1547 1547 1547 1547 1547 1547 1548 1548 1549 1549 1550 1550 1551 1552 1552 1552 1553 1552 1552 1553 1553 1553 1553 1554 1554 1555 1555
1528 1530 1531 1533 1534 1535 1537 1539 1541 1542 1543 1544 1544 1545 1545 1546 1546 1546 1546 1546 1547 1547 1547 1547 1548 1548 1549 1549 1550 1550 1551 1551 1551 1552 1552 1552 1552 1552 1552 1553 1553 1553 1554
1527 1529 1531 1532 1533 1535 1537 1539 1541 1542 1543 1544 1544 1545 1545 1546 1546 1546 1546 1546 1546 1546 1546 1547 1547 1548 1548 1548 1548 1548 1549 1550 1551 1550 1550 1550 1550 1550 1551 1551 1552 1552 1552
1526 1528 1530 1532 1533 1534 1536 1538 1541 1542 1543 1544 1544 1544 1545 1545 1546 1546 1545 1546 1546 1545 1545 1546 1546 1547 1547 1547 1547 1547 1548 1549 1549 1549 1549 1549 1549 1549 1549 1550 1550 1550 1551
1525 1527 1529 1531 1533 1534 1536 1538 1540 1541 1542 1543 1543 1544 1544 1545 1545 1545 1545 1545 1545 1545 1545 1545 1545 1545 1545 1546 1546 1546 1546 1547 1547 1548 1548 1548 1548 1548 1548 1548 1547 1548 1549
1524 1526 1528 1530 1531 1533 1535 1537 1538 1540 1541 1542 1542 1543 1543 1544 1544 1544 1544 1544 1544 1544 1544 1544 1544 1544 1544 1544 1545 1545 1545 1545 1545 1546 1546 1547 1546 1545 1545 1545 1546 1546 1546
1523 1525 1526 1528 1530 1532 1534 1535 1537 1538 1540 1541 1541 1542 1543 1543 1543 1543 1543 1543 1543 1543 1543 1543 1542 1543 1543 1543 1543 1543 1543 1543 1543 1543 1544 1545 1545 1544 1544 1543 1543 1543 1544
1520 1522 1525 1527 1528 1530 1532 1534 1535 1537 1538 1539 1540 1541 1541 1542 1542 1542 1542 1542 1542 1541 1541 1541 1541 1541 1541 1542 1542 1542 1542 1543 1541 1542 1542 1543 1543 1543 1542 1542 1541 1541 1542
1518 1520 1523 1525 1527 1529 1531 1532 1534 1535 1536 1538 1538 1539 1539 1540 1540 1541 1541 1541 1541 1540 1540 1540 1540 1540 1540 1540 1540 1541 1542 1541 1541 1541 1541 1541 1541 1541 1540 1540 1540 1540 1540
1515 1518 1520 1523 1525 1527 1528 1530 1532 1533 1534 1536 1536 1537 1538 1538 1539 1539 1539 1539 1539 1539 1539 1539 1538 1538 1538 1538 1539 1540 1541 1540 1541 1540 1540 1540 1539 1538 1538 1539 1538 1538 1538
1513 1516 1518 1520 1522 1524 1526 1527 1529 1531 1533 1534 1535 1535 1536 1536 1537 1537 1537 1537 1538 1538 1537 1537 1537 1537 1537 1537 1538 1538 1539 1539 1539 1539 1538 1538 1538 1537 1537 1537 1535 1536 1536
1511 1513 1516 1517 1519 1521 1523 1525 1527 1529 1530 1532 1533 1533 1534 1534 1535 1535 1536 1536 1536 1536 1536 1536 1536 1536 1536 1536 1536 1536 1537 1537 1537 1537 1537 1536 1536 1536 1535 1535 1535 1534 1534